| time (UTC) | temp C | wind direction | speed KPH | gust KPH | rain 1hr cm | rain 24hr cm | rain mn cm | humidity % | barometer mb |
| 20260506212528 | 23 | 51 | 1.6 | 12.9 | 0.00 | 0.00 | 0.00 | 54 | 1018.7 |
| 20260506212028 | 23 | 61 | 3.2 | 14.5 | 0.00 | 0.00 | 0.00 | 54 | 1018.7 |
| 20260506211546 | 23 | 261 | 4.8 | 14.5 | 0.00 | 0.00 | 0.00 | 53 | 1018.7 |
| 20260506211028 | 23 | 273 | 8.0 | 14.5 | 0.00 | 0.00 | 0.00 | 53 | 1018.7 |
| 20260506210529 | 23 | 329 | 6.4 | 14.5 | 0.00 | 0.00 | 0.00 | 54 | 1018.7 |
| 20260506210045 | 23 | 341 | 1.6 | 12.9 | 0.00 | 0.00 | 0.00 | 56 | 1018.7 |
| 20260506205532 | 22 | 324 | 3.2 | 16.1 | 0.00 | 0.00 | 0.00 | 56 | 1018.7 |
| 20260506205028 | 22 | 298 | 4.8 | 16.1 | 0.00 | 0.00 | 0.00 | 56 | 1018.8 |
| 20260506204543 | 22 | 314 | 6.4 | 14.5 | 0.00 | 0.00 | 0.00 | 56 | 1018.8 |
| 20260506204028 | 22 | 327 | 3.2 | 17.7 | 0.00 | 0.00 | 0.00 | 58 | 1018.8 |
| 20260506203529 | 22 | 0 | 6.4 | 17.7 | 0.00 | 0.00 | 0.00 | 58 | 1018.7 |
| 20260506203041 | 22 | 71 | 1.6 | 16.1 | 0.00 | 0.00 | 0.00 | 59 | 1018.9 |
| 20260506202529 | 22 | 268 | 4.8 | 16.1 | 0.00 | 0.00 | 0.00 | 59 | 1019.1 |
| 20260506202029 | 21 | 315 | 4.8 | 16.1 | 0.00 | 0.00 | 0.00 | 59 | 1019.2 |
| 20260506201541 | 21 | 5 | 4.8 | 14.5 | 0.00 | 0.00 | 0.00 | 61 | 1019.1 |
| 20260506201028 | 21 | 65 | 3.2 | 12.9 | 0.00 | 0.00 | 0.00 | 62 | 1019.3 |
| 20260506200528 | 21 | 294 | 4.8 | 12.9 | 0.00 | 0.00 | 0.00 | 60 | 1019.3 |
| 20260506200045 | 21 | 338 | 3.2 | 12.9 | 0.00 | 0.00 | 0.00 | 61 | 1019.4 |
| 20260506195531 | 21 | 333 | 6.4 | 17.7 | 0.00 | 0.00 | 0.00 | 61 | 1019.5 |
| 20260506195028 | 21 | 12 | 6.4 | 17.7 | 0.00 | 0.00 | 0.00 | 63 | 1019.5 |
| 20260506194539 | 21 | 352 | 4.8 | 16.1 | 0.00 | 0.00 | 0.00 | 62 | 1019.6 |
| 20260506194030 | 21 | 323 | 6.4 | 16.1 | 0.00 | 0.00 | 0.00 | 62 | 1019.5 |
| 20260506193528 | 21 | 322 | 8.0 | 17.7 | 0.00 | 0.00 | 0.00 | 62 | 1019.7 |
| 20260506193042 | 21 | 288 | 6.4 | 17.7 | 0.00 | 0.00 | 0.00 | 62 | 1019.7 |
| 20260506192528 | 20 | 319 | 6.4 | 16.1 | 0.00 | 0.00 | 0.00 | 62 | 1019.7 |
| 20260506192031 | 20 | 319 | 4.8 | 17.7 | 0.00 | 0.00 | 0.00 | 61 | 1019.7 |
| 20260506191547 | 21 | 67 | 3.2 | 17.7 | 0.00 | 0.00 | 0.00 | 61 | 1019.9 |
| 20260506191030 | 20 | 340 | 3.2 | 12.9 | 0.00 | 0.00 | 0.00 | 62 | 1019.9 |
| 20260506190529 | 20 | 288 | 4.8 | 14.5 | 0.00 | 0.00 | 0.00 | 62 | 1019.9 |
| 20260506190047 | 20 | 327 | 4.8 | 14.5 | 0.00 | 0.00 | 0.00 | 60 | 1019.9 |
| 20260506185530 | 20 | 13 | 6.4 | 14.5 | 0.00 | 0.00 | 0.00 | 62 | 1019.8 |
| 20260506185028 | 20 | 312 | 3.2 | 12.9 | 0.00 | 0.00 | 0.00 | 62 | 1019.9 |
| 20260506184548 | 20 | 342 | 3.2 | 14.5 | 0.00 | 0.00 | 0.00 | 62 | 1020.0 |
| 20260506184030 | 20 | 58 | 4.8 | 14.5 | 0.00 | 0.00 | 0.00 | 62 | 1020.1 |
| 20260506183529 | 20 | 291 | 1.6 | 8.0 | 0.00 | 0.00 | 0.00 | 62 | 1020.2 |
| 20260506183047 | 20 | 266 | 1.6 | 9.7 | 0.00 | 0.00 | 0.00 | 63 | 1020.2 |
| 20260506182528 | 20 | 198 | 0.0 | 9.7 | 0.00 | 0.00 | 0.00 | 64 | 1020.2 |
| 20260506182028 | 19 | 41 | 3.2 | 11.3 | 0.00 | 0.00 | 0.00 | 65 | 1020.3 |
| 20260506181539 | 19 | 168 | 4.8 | 11.3 | 0.00 | 0.00 | 0.00 | 65 | 1020.2 |
| 20260506181029 | 19 | 62 | 1.6 | 4.8 | 0.00 | 0.00 | 0.00 | 67 | 1020.3 |
| 20260506180529 | 18 | 68 | 0.0 | 12.9 | 0.00 | 0.00 | 0.00 | 68 | 1020.2 |
| 20260506180048 | 18 | 69 | 3.2 | 12.9 | 0.00 | 0.00 | 0.00 | 68 | 1020.3 |
| 20260506175528 | 18 | 304 | 3.2 | 9.7 | 0.00 | 0.00 | 0.00 | 68 | 1020.2 |
| 20260506175028 | 18 | 0 | 3.2 | 9.7 | 0.00 | 0.00 | 0.00 | 67 | 1020.2 |
| 20260506174544 | 18 | 327 | 0.0 | 9.7 | 0.00 | 0.00 | 0.00 | 68 | 1020.2 |
| 20260506174030 | 18 | 0 | 1.6 | 9.7 | 0.00 | 0.00 | 0.00 | 68 | 1020.3 |
| 20260506173529 | 18 | 242 | 3.2 | 9.7 | 0.00 | 0.00 | 0.00 | 69 | 1020.3 |
| 20260506173117 | 18 | 299 | 1.6 | 6.4 | 0.00 | 0.00 | 0.00 | 68 | 1020.3 |
| 20260506172528 | 18 | 0 | 1.6 | 4.8 | 0.00 | 0.00 | 0.00 | 69 | 1020.4 |
| 20260506172030 | 17 | 0 | 0.0 | 4.8 | 0.00 | 0.00 | 0.00 | 71 | 1020.4 |
| 20260506171539 | 17 | 88 | 0.0 | 9.7 | 0.00 | 0.00 | 0.00 | 71 | 1020.3 |
| 20260506171031 | 17 | 273 | 3.2 | 9.7 | 0.00 | 0.00 | 0.00 | 71 | 1020.5 |
| 20260506170529 | 17 | 0 | 0.0 | 6.4 | 0.00 | 0.00 | 0.00 | 71 | 1020.4 |
| 20260506170041 | 17 | 271 | 1.6 | 6.4 | 0.00 | 0.00 | 0.00 | 72 | 1020.4 |
| 20260506165528 | 16 | 0 | 0.0 | 6.4 | 0.00 | 0.00 | 0.00 | 73 | 1020.5 |
| 20260506165029 | 16 | 254 | 0.0 | 6.4 | 0.00 | 0.00 | 0.00 | 73 | 1020.4 |
| 20260506164541 | 16 | 215 | 1.6 | 9.7 | 0.00 | 0.00 | 0.00 | 73 | 1020.5 |
| 20260506164028 | 16 | 256 | 1.6 | 9.7 | 0.00 | 0.00 | 0.00 | 73 | 1020.4 |
| 20260506163534 | 16 | 257 | 1.6 | 9.7 | 0.00 | 0.00 | 0.00 | 73 | 1020.4 |
| 20260506163047 | 16 | 325 | 0.0 | 8.0 | 0.00 | 0.00 | 0.00 | 74 | 1020.6 |
| 20260506162525 | 16 | 282 | 3.2 | 8.0 | 0.00 | 0.00 | 0.00 | 74 | 1020.5 |
| 20260506162030 | 16 | 314 | 1.6 | 8.0 | 0.00 | 0.00 | 0.00 | 74 | 1020.6 |
| 20260506161544 | 16 | 221 | 1.6 | 6.4 | 0.00 | 0.00 | 0.00 | 74 | 1020.6 |
| 20260506161029 | 15 | 209 | 1.6 | 9.7 | 0.00 | 0.00 | 0.00 | 75 | 1020.6 |
| 20260506160529 | 15 | 180 | 1.6 | 9.7 | 0.00 | 0.00 | 0.00 | 76 | 1020.6 |
| 20260506160046 | 15 | 177 | 3.2 | 9.7 | 0.00 | 0.00 | 0.00 | 76 | 1020.5 |
| 20260506155529 | 15 | 0 | 0.0 | 8.0 | 0.00 | 0.00 | 0.00 | 77 | 1020.6 |
| 20260506155029 | 15 | 0 | 1.6 | 9.7 | 0.00 | 0.00 | 0.00 | 78 | 1020.7 |
| 20260506154545 | 15 | 200 | 4.8 | 9.7 | 0.00 | 0.00 | 0.00 | 78 | 1020.7 |
| 20260506154031 | 15 | 220 | 0.0 | 6.4 | 0.00 | 0.00 | 0.00 | 78 | 1020.6 |
| 20260506153530 | 14 | 209 | 0.0 | 8.0 | 0.00 | 0.00 | 0.00 | 79 | 1020.7 |
| 20260506153045 | 14 | 164 | 1.6 | 8.0 | 0.00 | 0.00 | 0.00 | 79 | 1020.7 |
| 20260506152528 | 14 | 208 | 1.6 | 6.4 | 0.00 | 0.00 | 0.00 | 80 | 1020.7 |
| 20260506152028 | 13 | 0 | 0.0 | 4.8 | 0.00 | 0.00 | 0.00 | 81 | 1020.7 |
| 20260506151548 | 13 | 0 | 0.0 | 6.4 | 0.00 | 0.00 | 0.00 | 82 | 1020.7 |
| 20260506151030 | 13 | 0 | 1.6 | 6.4 | 0.00 | 0.00 | 0.00 | 82 | 1020.6 |
| 20260506150531 | 13 | 256 | 0.0 | 4.8 | 0.00 | 0.00 | 0.00 | 83 | 1020.6 |
| 20260506150042 | 13 | 0 | 1.6 | 4.8 | 0.00 | 0.00 | 0.00 | 85 | 1020.5 |
| 20260506145529 | 12 | 0 | 0.0 | 0.0 | 0.00 | 0.00 | 0.00 | 87 | 1020.5 |
| 20260506145029 | 12 | 0 | 0.0 | 0.0 | 0.00 | 0.00 | 0.00 | 88 | 1020.6 |
| 20260506144544 | 12 | 0 | 0.0 | 0.0 | 0.00 | 0.00 | 0.00 | 88 | 1020.5 |
| 20260506144029 | 12 | 0 | 0.0 | 0.0 | 0.00 | 0.00 | 0.00 | 88 | 1020.5 |
| 20260506143529 | 12 | 0 | 0.0 | 0.0 | 0.00 | 0.00 | 0.00 | 88 | 1020.5 |
| 20260506143042 | 12 | 0 | 0.0 | 0.0 | 0.00 | 0.00 | 0.00 | 89 | 1020.7 |
| 20260506142528 | 11 | 0 | 0.0 | 0.0 | 0.00 | 0.00 | 0.00 | 89 | 1020.4 |
| 20260506142028 | 11 | 0 | 0.0 | 0.0 | 0.00 | 0.00 | 0.00 | 89 | 1020.3 |
| 20260506141540 | 11 | 0 | 0.0 | 0.0 | 0.00 | 0.00 | 0.00 | 89 | 1020.3 |
| 20260506141029 | 11 | 0 | 0.0 | 0.0 | 0.00 | 0.00 | 0.00 | 89 | 1020.3 |
| 20260506140529 | 11 | 0 | 0.0 | 0.0 | 0.00 | 0.00 | 0.00 | 89 | 1020.3 |
| 20260506140046 | 11 | 0 | 0.0 | 0.0 | 0.00 | 0.00 | 0.00 | 89 | 1020.3 |
| 20260506135528 | 11 | 0 | 0.0 | 0.0 | 0.00 | 0.00 | 0.00 | 89 | 1020.0 |
| 20260506135029 | 11 | 0 | 0.0 | 0.0 | 0.00 | 0.00 | 0.00 | 89 | 1019.9 |
| 20260506134539 | 11 | 0 | 0.0 | 0.0 | 0.00 | 0.00 | 0.00 | 89 | 1019.9 |
| 20260506134028 | 11 | 0 | 0.0 | 0.0 | 0.00 | 0.00 | 0.00 | 89 | 1019.9 |
| 20260506133529 | 11 | 0 | 0.0 | 0.0 | 0.00 | 0.00 | 0.00 | 89 | 1019.9 |
| 20260506133040 | 11 | 0 | 0.0 | 0.0 | 0.00 | 0.00 | 0.00 | 89 | 1019.9 |
| 20260506132532 | 11 | 0 | 0.0 | 0.0 | 0.00 | 0.00 | 0.00 | 89 | 1019.9 |
| 20260506132032 | 11 | 0 | 0.0 | 0.0 | 0.00 | 0.00 | 0.00 | 88 | 1019.8 |
| 20260506131548 | 12 | 0 | 0.0 | 0.0 | 0.00 | 0.00 | 0.00 | 88 | 1019.8 |
| 20260506131029 | 12 | 0 | 0.0 | 0.0 | 0.00 | 0.00 | 0.00 | 88 | 1019.6 |
| 20260506130526 | 12 | 0 | 0.0 | 0.0 | 0.00 | 0.00 | 0.00 | 88 | 1019.6 |
| 20260506130054 | 12 | 0 | 0.0 | 0.0 | 0.00 | 0.00 | 0.00 | 88 | 1019.6 |
| 20260506125532 | 12 | 0 | 0.0 | 0.0 | 0.00 | 0.00 | 0.00 | 87 | 1019.7 |
| 20260506125031 | 12 | 0 | 0.0 | 0.0 | 0.00 | 0.00 | 0.00 | 87 | 1019.6 |
| 20260506124538 | 12 | 0 | 0.0 | 0.0 | 0.00 | 0.00 | 0.00 | 87 | 1019.5 |
| 20260506124028 | 12 | 0 | 0.0 | 0.0 | 0.00 | 0.00 | 0.00 | 87 | 1019.5 |
| 20260506123528 | 12 | 0 | 0.0 | 0.0 | 0.00 | 0.00 | 0.00 | 88 | 1019.5 |
| 20260506123045 | 12 | 0 | 0.0 | 0.0 | 0.00 | 0.00 | 0.00 | 87 | 1019.5 |
| 20260506122528 | 12 | 0 | 0.0 | 0.0 | 0.00 | 0.00 | 0.00 | 88 | 1019.5 |
| 20260506122030 | 12 | 0 | 0.0 | 0.0 | 0.00 | 0.00 | 0.00 | 88 | 1019.4 |
| 20260506121541 | 12 | 0 | 0.0 | 0.0 | 0.00 | 0.00 | 0.00 | 88 | 1019.4 |
| 20260506121029 | 12 | 0 | 0.0 | 0.0 | 0.00 | 0.00 | 0.00 | 88 | 1019.4 |
| 20260506120531 | 12 | 0 | 0.0 | 0.0 | 0.00 | 0.00 | 0.00 | 88 | 1019.4 |
| 20260506120040 | 12 | 0 | 0.0 | 0.0 | 0.00 | 0.00 | 0.00 | 88 | 1019.4 |
| 20260506115529 | 12 | 0 | 0.0 | 0.0 | 0.00 | 0.00 | 0.00 | 88 | 1019.4 |
| 20260506115028 | 12 | 0 | 0.0 | 0.0 | 0.00 | 0.00 | 0.00 | 88 | 1019.3 |
| 20260506114540 | 12 | 0 | 0.0 | 0.0 | 0.00 | 0.00 | 0.00 | 88 | 1019.4 |
| 20260506114028 | 12 | 0 | 0.0 | 0.0 | 0.00 | 0.00 | 0.00 | 88 | 1019.3 |
| 20260506113528 | 12 | 0 | 0.0 | 0.0 | 0.00 | 0.00 | 0.00 | 88 | 1019.3 |
| 20260506113046 | 12 | 0 | 0.0 | 0.0 | 0.00 | 0.00 | 0.00 | 88 | 1019.3 |
| 20260506112528 | 12 | 0 | 0.0 | 0.0 | 0.00 | 0.00 | 0.00 | 88 | 1019.3 |
| 20260506112028 | 12 | 0 | 0.0 | 0.0 | 0.00 | 0.00 | 0.00 | 88 | 1019.2 |
| 20260506111540 | 12 | 0 | 0.0 | 0.0 | 0.00 | 0.00 | 0.00 | 88 | 1019.2 |
| 20260506111028 | 12 | 0 | 0.0 | 0.0 | 0.00 | 0.00 | 0.00 | 88 | 1019.1 |
| 20260506110531 | 12 | 0 | 0.0 | 0.0 | 0.00 | 0.00 | 0.00 | 88 | 1019.2 |
| 20260506110051 | 12 | 0 | 0.0 | 0.0 | 0.00 | 0.00 | 0.00 | 88 | 1019.1 |
| 20260506105529 | 12 | 0 | 0.0 | 0.0 | 0.00 | 0.00 | 0.00 | 88 | 1019.1 |
| 20260506105031 | 12 | 0 | 0.0 | 0.0 | 0.00 | 0.00 | 0.00 | 88 | 1018.9 |
| 20260506104547 | 12 | 0 | 0.0 | 0.0 | 0.00 | 0.00 | 0.00 | 88 | 1018.9 |
| 20260506104028 | 11 | 0 | 0.0 | 0.0 | 0.00 | 0.00 | 0.00 | 88 | 1019.1 |
| 20260506103528 | 11 | 0 | 0.0 | 0.0 | 0.00 | 0.00 | 0.00 | 88 | 1019.1 |
| 20260506103048 | 11 | 0 | 0.0 | 0.0 | 0.00 | 0.00 | 0.00 | 88 | 1018.9 |
| 20260506102529 | 11 | 0 | 0.0 | 0.0 | 0.00 | 0.00 | 0.00 | 88 | 1019.0 |
| 20260506102029 | 11 | 0 | 0.0 | 0.0 | 0.00 | 0.00 | 0.00 | 88 | 1018.9 |
| 20260506101550 | 11 | 0 | 0.0 | 0.0 | 0.00 | 0.00 | 0.00 | 88 | 1019.0 |
| 20260506101028 | 11 | 0 | 0.0 | 0.0 | 0.00 | 0.00 | 0.00 | 88 | 1018.9 |
| 20260506100528 | 11 | 0 | 0.0 | 0.0 | 0.00 | 0.00 | 0.00 | 88 | 1018.9 |
| 20260506100058 | 11 | 0 | 0.0 | 0.0 | 0.00 | 0.00 | 0.00 | 88 | 1018.9 |
| 20260506095528 | 11 | 0 | 0.0 | 0.0 | 0.00 | 0.05 | 0.00 | 89 | 1018.9 |
| 20260506095032 | 11 | 0 | 0.0 | 0.0 | 0.00 | 0.05 | 0.00 | 89 | 1019.0 |
| 20260506094544 | 11 | 0 | 0.0 | 0.0 | 0.00 | 0.05 | 0.00 | 89 | 1019.0 |
| 20260506094028 | 11 | 0 | 0.0 | 0.0 | 0.00 | 0.05 | 0.00 | 89 | 1018.8 |
| 20260506093528 | 11 | 0 | 0.0 | 0.0 | 0.00 | 0.05 | 0.00 | 89 | 1018.7 |
| 20260506093044 | 11 | 0 | 0.0 | 0.0 | 0.00 | 0.05 | 0.00 | 89 | 1018.8 |
| 20260506092530 | 11 | 0 | 0.0 | 0.0 | 0.00 | 0.05 | 0.00 | 89 | 1018.8 |
| 20260506092029 | 11 | 0 | 0.0 | 0.0 | 0.00 | 0.05 | 0.00 | 89 | 1018.8 |
| 20260506091540 | 11 | 0 | 0.0 | 0.0 | 0.00 | 0.05 | 0.00 | 89 | 1018.9 |
| 20260506091032 | 11 | 0 | 0.0 | 0.0 | 0.00 | 0.05 | 0.00 | 89 | 1018.7 |
| 20260506090528 | 11 | 0 | 0.0 | 0.0 | 0.00 | 0.05 | 0.00 | 89 | 1018.8 |
| 20260506090039 | 11 | 0 | 0.0 | 0.0 | 0.00 | 0.05 | 0.00 | 89 | 1018.8 |
| 20260506085531 | 11 | 0 | 0.0 | 0.0 | 0.00 | 0.15 | 0.00 | 90 | 1018.7 |
| 20260506085028 | 11 | 0 | 0.0 | 0.0 | 0.00 | 0.15 | 0.00 | 90 | 1018.8 |
| 20260506084559 | 11 | 0 | 0.0 | 0.0 | 0.00 | 0.15 | 0.00 | 90 | 1018.9 |
| 20260506084028 | 10 | 0 | 0.0 | 0.0 | 0.00 | 0.15 | 0.00 | 90 | 1018.8 |
| 20260506083528 | 10 | 0 | 0.0 | 0.0 | 0.00 | 0.15 | 0.00 | 90 | 1018.7 |
| 20260506083043 | 10 | 0 | 0.0 | 0.0 | 0.00 | 0.15 | 0.00 | 90 | 1018.7 |
| 20260506082531 | 10 | 0 | 0.0 | 0.0 | 0.00 | 0.15 | 0.00 | 90 | 1018.8 |
| 20260506082033 | 10 | 0 | 0.0 | 1.6 | 0.00 | 0.15 | 0.00 | 89 | 1018.7 |
| 20260506081546 | 10 | 0 | 0.0 | 1.6 | 0.00 | 0.15 | 0.00 | 89 | 1018.7 |
| 20260506081030 | 10 | 0 | 0.0 | 1.6 | 0.00 | 0.15 | 0.00 | 89 | 1018.8 |
| 20260506080530 | 10 | 0 | 0.0 | 1.6 | 0.00 | 0.15 | 0.00 | 89 | 1018.8 |
| 20260506073047 | 11 | 0 | 0.0 | 0.0 | 0.00 | 0.25 | 0.00 | 87 | 1018.8 |
| 20260506072528 | 11 | 0 | 0.0 | 0.0 | 0.00 | 0.25 | 0.00 | 87 | 1018.7 |
| 20260506072028 | 11 | 0 | 0.0 | 0.0 | 0.00 | 0.25 | 0.00 | 86 | 1018.7 |
| 20260506071545 | 11 | 0 | 0.0 | 0.0 | 0.00 | 0.25 | 0.00 | 86 | 1018.6 |
| 20260506071030 | 11 | 0 | 0.0 | 0.0 | 0.00 | 0.25 | 0.00 | 86 | 1018.5 |
| 20260506070529 | 11 | 0 | 0.0 | 0.0 | 0.00 | 0.25 | 0.00 | 85 | 1018.6 |
| 20260506062028 | 12 | 199 | 0.0 | 6.4 | 0.00 | 0.36 | 0.25 | 82 | 1018.2 |
| 20260506061538 | 12 | 199 | 1.6 | 8.0 | 0.00 | 0.36 | 0.25 | 82 | 1018.2 |
| 20260506061029 | 12 | 179 | 0.0 | 8.0 | 0.00 | 0.36 | 0.25 | 82 | 1018.1 |
| 20260506060529 | 12 | 0 | 0.0 | 6.4 | 0.00 | 0.36 | 0.25 | 81 | 1018.1 |
| 20260506051028 | 13 | 207 | 0.0 | 8.0 | 0.00 | 0.41 | 0.25 | 81 | 1017.6 |
| 20260506050529 | 13 | 219 | 3.2 | 8.0 | 0.00 | 0.41 | 0.25 | 81 | 1017.7 |
| 20260506045027 | 13 | 237 | 1.6 | 6.4 | 0.00 | 0.48 | 0.25 | 80 | 1017.6 |
| 20260506044627 | 13 | 0 | 0.0 | 6.4 | 0.00 | 0.48 | 0.25 | 80 | 1017.4 |
| 20260506044031 | 13 | 276 | 1.6 | 6.4 | 0.00 | 0.48 | 0.25 | 80 | 1017.4 |
| 20260506043529 | 13 | 215 | 1.6 | 11.3 | 0.00 | 0.48 | 0.25 | 80 | 1017.3 |
| 20260506043047 | 13 | 0 | 3.2 | 11.3 | 0.00 | 0.48 | 0.25 | 79 | 1017.3 |
| 20260506042528 | 13 | 208 | 0.0 | 9.7 | 0.00 | 0.48 | 0.25 | 79 | 1017.1 |
| 20260506042028 | 13 | 193 | 3.2 | 9.7 | 0.00 | 0.48 | 0.25 | 79 | 1017.0 |
| 20260506041558 | 14 | 188 | 1.6 | 9.7 | 0.00 | 0.48 | 0.25 | 79 | 1017.1 |
| 20260506041030 | 14 | 317 | 1.6 | 8.0 | 0.00 | 0.48 | 0.25 | 79 | 1016.9 |
| 20260506040529 | 14 | 238 | 1.6 | 8.0 | 0.00 | 0.48 | 0.25 | 79 | 1016.9 |
| 20260506040048 | 14 | 202 | 0.0 | 9.7 | 0.00 | 0.48 | 0.25 | 79 | 1016.9 |
| 20260506035529 | 14 | 0 | 3.2 | 9.7 | 0.00 | 0.48 | 0.25 | 79 | 1016.7 |
| 20260506035029 | 14 | 202 | 1.6 | 8.0 | 0.00 | 0.48 | 0.25 | 79 | 1016.8 |
| 20260506034602 | 14 | 202 | 3.2 | 8.0 | 0.00 | 0.48 | 0.25 | 78 | 1016.8 |
| 20260506034029 | 14 | 164 | 0.0 | 14.5 | 0.00 | 0.48 | 0.25 | 78 | 1016.7 |
| 20260506033528 | 14 | 217 | 1.6 | 14.5 | 0.00 | 0.48 | 0.25 | 78 | 1016.5 |
| 20260506033041 | 14 | 243 | 3.2 | 14.5 | 0.00 | 0.48 | 0.25 | 77 | 1016.4 |
| 20260506032528 | 14 | 209 | 3.2 | 9.7 | 0.00 | 0.48 | 0.25 | 77 | 1016.3 |
| 20260506032028 | 14 | 0 | 1.6 | 12.9 | 0.00 | 0.48 | 0.25 | 77 | 1016.3 |
| 20260506031542 | 14 | 284 | 1.6 | 12.9 | 0.00 | 0.48 | 0.25 | 76 | 1016.1 |
| 20260506031030 | 14 | 186 | 1.6 | 8.0 | 0.00 | 0.48 | 0.25 | 76 | 1016.1 |
| 20260506030528 | 15 | 208 | 0.0 | 9.7 | 0.00 | 0.48 | 0.25 | 76 | 1016.0 |
| 20260506030039 | 15 | 215 | 1.6 | 9.7 | 0.00 | 0.48 | 0.25 | 76 | 1016.0 |
| 20260506025531 | 15 | 224 | 1.6 | 12.9 | 0.00 | 0.48 | 0.25 | 75 | 1016.0 |
| 20260506025028 | 15 | 231 | 3.2 | 12.9 | 0.00 | 0.48 | 0.25 | 75 | 1016.0 |
| 20260506024539 | 15 | 268 | 1.6 | 11.3 | 0.00 | 0.48 | 0.25 | 75 | 1015.9 |
| 20260506024027 | 15 | 284 | 3.2 | 11.3 | 0.00 | 0.48 | 0.25 | 75 | 1015.8 |
| 20260506023529 | 15 | 261 | 3.2 | 14.5 | 0.00 | 0.48 | 0.25 | 75 | 1015.9 |
| 20260506023102 | 15 | 268 | 1.6 | 14.5 | 0.00 | 0.48 | 0.25 | 75 | 1015.8 |
| 20260506022528 | 15 | 283 | 4.8 | 14.5 | 0.00 | 0.48 | 0.25 | 75 | 1015.8 |
| 20260506022029 | 15 | 190 | 1.6 | 19.3 | 0.00 | 0.48 | 0.25 | 75 | 1015.7 |
| 20260506021540 | 15 | 196 | 3.2 | 19.3 | 0.00 | 0.48 | 0.25 | 75 | 1015.7 |
| 20260506021029 | 15 | 196 | 6.4 | 19.3 | 0.00 | 0.48 | 0.25 | 74 | 1015.7 |
| 20260506020528 | 15 | 229 | 3.2 | 17.7 | 0.00 | 0.48 | 0.25 | 75 | 1015.6 |
| 20260506020039 | 15 | 209 | 3.2 | 17.7 | 0.00 | 0.48 | 0.25 | 74 | 1015.6 |
| 20260506015529 | 15 | 201 | 4.8 | 16.1 | 0.00 | 0.48 | 0.25 | 74 | 1015.6 |
| 20260506015031 | 15 | 188 | 3.2 | 17.7 | 0.00 | 0.48 | 0.25 | 75 | 1015.5 |
| 20260506014545 | 15 | 176 | 8.0 | 22.5 | 0.00 | 0.48 | 0.25 | 74 | 1015.4 |
| 20260506014028 | 16 | 214 | 6.4 | 22.5 | 0.00 | 0.48 | 0.25 | 74 | 1015.5 |
| 20260506013529 | 16 | 236 | 8.0 | 19.3 | 0.00 | 0.48 | 0.25 | 74 | 1015.4 |
| 20260506013044 | 16 | 190 | 3.2 | 19.3 | 0.00 | 0.48 | 0.25 | 74 | 1015.3 |
| 20260506012529 | 16 | 199 | 6.4 | 14.5 | 0.00 | 0.48 | 0.25 | 74 | 1015.3 |
| 20260506012029 | 16 | 271 | 1.6 | 12.9 | 0.00 | 0.48 | 0.25 | 74 | 1015.3 |
| 20260506011551 | 16 | 237 | 3.2 | 12.9 | 0.00 | 0.48 | 0.25 | 74 | 1015.3 |
| 20260506011029 | 16 | 282 | 3.2 | 16.1 | 0.00 | 0.48 | 0.25 | 74 | 1015.3 |
| 20260506010529 | 16 | 229 | 3.2 | 16.1 | 0.00 | 0.48 | 0.25 | 74 | 1015.4 |
| 20260506010048 | 16 | 260 | 4.8 | 16.1 | 0.00 | 0.48 | 0.25 | 74 | 1015.3 |
| 20260506005528 | 16 | 304 | 3.2 | 14.5 | 0.00 | 0.48 | 0.25 | 73 | 1015.4 |
| 20260506005029 | 16 | 237 | 4.8 | 14.5 | 0.00 | 0.48 | 0.25 | 73 | 1015.3 |
| 20260506004559 | 16 | 0 | 1.6 | 12.9 | 0.00 | 0.48 | 0.25 | 74 | 1015.2 |
| 20260506004030 | 17 | 295 | 6.4 | 14.5 | 0.00 | 0.48 | 0.25 | 74 | 1015.3 |
| 20260506003529 | 17 | 179 | 3.2 | 14.5 | 0.00 | 0.48 | 0.25 | 73 | 1015.2 |
| 20260506003101 | 16 | 210 | 3.2 | 14.5 | 0.00 | 0.48 | 0.25 | 74 | 1015.2 |
| 20260506002529 | 16 | 204 | 4.8 | 12.9 | 0.00 | 0.48 | 0.25 | 75 | 1015.2 |
| 20260506002030 | 16 | 203 | 3.2 | 16.1 | 0.00 | 0.48 | 0.25 | 76 | 1015.1 |
| 20260506001547 | 16 | 220 | 6.4 | 16.1 | 0.00 | 0.48 | 0.25 | 75 | 1015.0 |
| 20260506001028 | 16 | 216 | 4.8 | 14.5 | 0.00 | 0.48 | 0.25 | 74 | 1015.1 |
| 20260506000529 | 16 | 0 | 3.2 | 14.5 | 0.00 | 0.48 | 0.25 | 73 | 1015.1 |
| 20260506000040 | 16 | 215 | 3.2 | 12.9 | 0.00 | 0.48 | 0.25 | 74 | 1015.2 |
| 20260505235529 | 16 | 268 | 3.2 | 12.9 | 0.00 | 0.48 | 0.25 | 74 | 1015.1 |
| 20260505235029 | 16 | 179 | 4.8 | 12.9 | 0.00 | 0.48 | 0.25 | 74 | 1015.2 |
| 20260505234557 | 16 | 271 | 1.6 | 12.9 | 0.00 | 0.48 | 0.25 | 74 | 1015.1 |
| 20260505234031 | 16 | 217 | 1.6 | 12.9 | 0.00 | 0.48 | 0.25 | 74 | 1015.2 |
| 20260505233532 | 16 | 299 | 3.2 | 11.3 | 0.00 | 0.48 | 0.25 | 73 | 1015.0 |
| 20260505233040 | 16 | 267 | 3.2 | 11.3 | 0.00 | 0.48 | 0.25 | 73 | 1015.2 |
| 20260505232529 | 16 | 202 | 3.2 | 12.9 | 0.00 | 0.48 | 0.25 | 74 | 1015.2 |
| 20260505232030 | 16 | 190 | 3.2 | 12.9 | 0.00 | 0.48 | 0.25 | 74 | 1015.1 |
| 20260505231545 | 16 | 232 | 1.6 | 8.0 | 0.00 | 0.48 | 0.25 | 75 | 1015.3 |
| 20260505231028 | 16 | 0 | 3.2 | 9.7 | 0.00 | 0.48 | 0.25 | 74 | 1015.2 |
| 20260505230530 | 16 | 0 | 3.2 | 9.7 | 0.00 | 0.48 | 0.25 | 74 | 1015.3 |
| 20260505230044 | 16 | 185 | 1.6 | 9.7 | 0.00 | 0.48 | 0.25 | 75 | 1015.2 |
| 20260505225529 | 16 | 176 | 1.6 | 6.4 | 0.00 | 0.48 | 0.25 | 75 | 1015.3 |
| 20260505225033 | 16 | 212 | 0.0 | 9.7 | 0.00 | 0.48 | 0.25 | 75 | 1015.2 |
| 20260505224541 | 16 | 215 | 1.6 | 9.7 | 0.00 | 0.48 | 0.25 | 75 | 1015.3 |
| 20260505224028 | 16 | 187 | 3.2 | 9.7 | 0.00 | 0.48 | 0.25 | 76 | 1015.2 |
| 20260505223528 | 16 | 171 | 3.2 | 9.7 | 0.00 | 0.48 | 0.25 | 75 | 1015.2 |
| 20260505223038 | 16 | 188 | 1.6 | 8.0 | 0.00 | 0.48 | 0.25 | 76 | 1015.3 |
| 20260505222528 | 16 | 115 | 3.2 | 8.0 | 0.00 | 0.48 | 0.25 | 76 | 1015.3 |
| 20260505222027 | 16 | 230 | 1.6 | 9.7 | 0.00 | 0.48 | 0.25 | 76 | 1015.3 |
| 20260505221539 | 16 | 220 | 1.6 | 9.7 | 0.00 | 0.48 | 0.25 | 76 | 1015.4 |
| 20260505221029 | 16 | 223 | 3.2 | 9.7 | 0.00 | 0.48 | 0.25 | 76 | 1015.3 |
| 20260505220529 | 16 | 227 | 3.2 | 9.7 | 0.00 | 0.48 | 0.25 | 76 | 1015.4 |
| 20260505220058 | 16 | 227 | 4.8 | 9.7 | 0.00 | 0.48 | 0.25 | 76 | 1015.4 |
| 20260505215528 | 16 | 161 | 3.2 | 6.4 | 0.00 | 0.48 | 0.25 | 77 | 1015.4 |
| 20260505215028 | 16 | 225 | 3.2 | 8.0 | 0.00 | 0.48 | 0.25 | 77 | 1015.3 |
| 20260505214544 | 16 | 0 | 3.2 | 8.0 | 0.00 | 0.48 | 0.25 | 77 | 1015.4 |
| 20260505214029 | 16 | 201 | 3.2 | 8.0 | 0.00 | 0.48 | 0.25 | 77 | 1015.5 |
| 20260505213529 | 16 | 0 | 1.6 | 8.0 | 0.00 | 0.48 | 0.25 | 77 | 1015.5 |
| 20260505213039 | 16 | 198 | 3.2 | 8.0 | 0.00 | 0.48 | 0.25 | 77 | 1015.5 |